Weather in Kanadey

Russia / Ulyanovsk Oblast     53°10′00″N   47°31′27″E
temp.,
°C
wind,
m/s
gust,
m/s
humid.,
%
clouds,
%
prec.,
mm/h
press.,
hPa
HPBL,
m
22 january, fri
fri2201:00−11sw4895100 1.3 1019410
04:00−12wsw4993100 2.4 1018551
07:00−15w2394100 0.0 101835
10:00−16w129496 0.0 101925
13:00−11w1288100 0.0 1019250
16:00−10sw1194100 0.0 101929
19:00−10se1296100 0.3 102041
22:00−9ese2496100 0.9 1021130
23 january, sat
sat2301:00−9se369699 0.6 1021216
04:00−10se369699 1.2 1021184
07:00−9se4696100 0.2 1021156
10:00−7sse4696100 0.4 1021180
13:00−2s4797100 0.2 1021275
16:00+1sw49100100 0.3 1020427
19:00+1sw3998100 0.0 1020351
22:00+1sw3997100 0.1 1021337
24 january, sun
sun2401:00+1sw3999100 0.0 1022328
04:00+1sw3799100 0.0 1022245
07:00+1sw2698100 0.0 1023173
10:00+1ssw3799100 0.0 1024275
13:00+1ssw38100100 0.0 1024285
16:00+1ssw41094100 0.1 1024317
19:00−2s369192 0.0 1025141
22:00−1s399295 0.0 1026337
25 january, mon
mon2501:00−3s499487 0.0 1027250
04:00−2ssw499592 0.0 1027367
07:00−4sse369598 0.0 1027217
10:00−6sse389799 0.0 1028235
13:00−3sse5898100 0.0 1027377
16:00−3sse6996100 0.1 1026451
19:00−2sse5995100 0.0 1026523
22:00−3s5995100 0.1 1026521
26 january, tue
tue2601:00−3sse5995100 0.0 1025430
04:00−3s5894100 0.1 1026501
07:00−3sse5894100 0.0 1025461
10:00−5sse5896100 0.1 1025346
13:00−5sse589699 0.1 1025400
16:00−3sse6996100 0.1 1024436
19:00−3sse61096100 0.0 1023462
22:00−3sse71196100 0.1 1022549